TimeCDT,TemperatureF,Dew PointF,Humidity,Sea Level PressureIn,VisibilityMPH,Wind Direction,Wind SpeedMPH,Gust SpeedMPH,PrecipitationIn,Events,Conditions,WindDirDegrees,DateUTC
12:53 AM,70.0,54.0,57,29.85,10.0,NNW,5.8,-,N/A,,Clear,340,2013-06-30 05:53:00
1:53 AM,69.1,54.0,58,29.87,10.0,NNW,4.6,-,N/A,,Clear,330,2013-06-30 06:53:00
2:53 AM,68.0,55.0,63,29.87,10.0,WNW,6.9,-,N/A,,Clear,300,2013-06-30 07:53:00
3:53 AM,66.0,55.9,70,29.87,10.0,NNW,6.9,-,N/A,,Clear,330,2013-06-30 08:53:00
4:53 AM,64.0,55.9,75,29.88,10.0,NW,5.8,-,N/A,,Clear,320,2013-06-30 09:53:00
5:53 AM,63.0,55.9,78,29.90,10.0,NNW,4.6,-,N/A,,Clear,330,2013-06-30 10:53:00
6:53 AM,64.9,57.0,75,29.92,10.0,NNW,8.1,-,N/A,,Clear,330,2013-06-30 11:53:00
7:53 AM,68.0,57.9,70,29.93,10.0,NNW,8.1,-,N/A,,Clear,340,2013-06-30 12:53:00
8:53 AM,73.0,55.9,55,29.94,10.0,North,11.5,-,N/A,,Clear,360,2013-06-30 13:53:00
9:53 AM,75.9,55.9,50,29.95,10.0,North,12.7,-,N/A,,Partly Cloudy,350,2013-06-30 14:53:00
10:53 AM,79.0,55.9,45,29.95,10.0,North,17.3,-,N/A,,Partly Cloudy,360,2013-06-30 15:53:00
11:53 AM,81.0,55.0,41,29.94,10.0,North,17.3,27.6,N/A,,Scattered Clouds,360,2013-06-30 16:53:00
12:53 PM,82.9,54.0,37,29.93,10.0,North,20.7,26.5,N/A,,Scattered Clouds,10,2013-06-30 17:53:00
1:53 PM,82.9,55.0,38,29.92,10.0,North,19.6,32.2,N/A,,Scattered Clouds,10,2013-06-30 18:53:00
2:53 PM,81.0,55.0,41,29.92,10.0,NNE,15.0,25.3,N/A,,Scattered Clouds,20,2013-06-30 19:53:00
3:53 PM,82.9,53.1,36,29.92,10.0,North,13.8,20.7,N/A,,Mostly Cloudy,10,2013-06-30 20:53:00
4:53 PM,82.9,54.0,37,29.91,10.0,North,17.3,-,N/A,,Mostly Cloudy,350,2013-06-30 21:53:00
5:53 PM,82.9,55.0,38,29.91,10.0,North,15.0,-,N/A,,Mostly Cloudy,350,2013-06-30 22:53:00
6:53 PM,82.0,54.0,38,29.91,10.0,North,15.0,20.7,N/A,,Mostly Cloudy,360,2013-06-30 23:53:00
7:53 PM,79.0,54.0,42,29.91,10.0,North,11.5,-,N/A,,Scattered Clouds,350,2013-07-01 00:53:00
8:53 PM,73.0,55.0,53,29.93,10.0,NNW,8.1,-,N/A,,Scattered Clouds,330,2013-07-01 01:53:00
9:53 PM,69.1,55.0,61,29.95,10.0,North,5.8,-,N/A,,Scattered Clouds,350,2013-07-01 02:53:00
10:53 PM,66.9,55.0,66,29.96,10.0,North,8.1,-,N/A,,Partly Cloudy,350,2013-07-01 03:53:00
11:53 PM,66.9,53.1,61,29.96,10.0,North,8.1,-,N/A,,Clear,350,2013-07-01 04:53:00